Breckenridge, USA 16 day weather forecast

Slopes altitude range 2925 m - 3915m

Number of lifts: 23 Pistes: 155km

In some cases the lift and piste totals shown are for the ski domain (e.g. Three Valleys) rather than individual resort (e.g. Courchevel)

Overview

The 16 day weather forecast is fully updated 4 times every day.

    • Sun 17 FEB 2019
    • Sun 17
    • -24C -21C
    • Mon 18 FEB 2019
    • Mon 18
    • -19C -16C
    • Tue 19 FEB 2019
    • Tue 19
    • -18C -17C
    • Wed 20 FEB 2019
    • Wed 20
    • -26C -22C
    • Thu 21 FEB 2019
    • Thu 21
    • -23C -20C
    • Fri 22 FEB 2019
    • Fri 22
    • -18C -17C
    • Sat 23 FEB 2019
    • Sat 23
    • -23C -22C
    • Sun 24 FEB 2019
    • Sun 24
    • -19C -18C
    • Mon 25 FEB 2019
    • Mon 25
    • -11C -11C
    • Tue 26 FEB 2019
    • Tue 26
    • -14C -6C
    • Wed 27 FEB 2019
    • Wed 27
    • -20C -7C
    • Thu 28 FEB 2019
    • Thu 28
    • -13C -5C
    • Fri 01 MAR 2019
    • Fri 01
    • -12C -6C
    • Sat 02 MAR 2019
    • Sat 02
    • -17C -2C
    • Sun 03 MAR 2019
    • Sun 03
    • -8C -4C
    • Mon 04 MAR 2019
    • Mon 04
    • -17C -5C

Date:

Time Type 0°C level Temp Chill Snow Cloud Speed Gust Dir Press
12:00 0m -21°C -21_3 0cm 25% 3mph 4mph 1021mB
15:00 238m -20°C -20_3 0cm 21% 3mph 3mph 1021mB
18:00 1328m -13°C -13_5 0cm 30% 5mph 9mph 1016mB
21:00 1600m -13°C -13_3 1cm 99% 3mph 5mph 1013mB
0:00 1237m -13°C -13_3 1cm 100% 3mph 3mph 1015mB
3:00 847m -16°C -16_4 1cm 98% 4mph 4mph 1020mB
6:00 826m -16°C -16_7 1cm 99% 7mph 12mph 1022mB
9:00 595m -18°C -18_7 1cm 97% 7mph 12mph 1023mB
12:00 443m -16°C -16_7 1cm 97% 7mph 14mph 1024mB
15:00 465m -18°C -18_7 1cm 99% 7mph 14mph 1025mB
18:00 1126m -14°C -14_8 1cm 98% 8mph 14mph 1021mB
21:00 1410m -14°C -14_9 1cm 98% 9mph 12mph 1017mB
0:00 1266m -14°C -14_7 1cm 99% 7mph 12mph 1018mB
3:00 877m -16°C -16_5 1cm 100% 5mph 9mph 1021mB
6:00 669m -17°C -17_6 1cm 99% 6mph 9mph 1021mB
9:00 639m -18°C -18_6 1cm 98% 6mph 10mph 1020mB
12:00 581m -17°C -17_5 1cm 97% 5mph 7mph 1018mB
15:00 712m -17°C -17_4 1cm 98% 4mph 6mph 1019mB
18:00 1384m -12°C -12_6 1cm 99% 6mph 8mph 1014mB
21:00 1719m -12°C -12_2 1cm 99% 2mph 3mph 1010mB
0:00 1269m -13°C -13_5 3cm 99% 5mph 8mph 1012mB
3:00 712m -17°C -17_6 1cm 100% 6mph 10mph 1017mB
6:00 35m -21°C -21_5 2cm 98% 5mph 6mph 1020mB
9:00 0m -23°C -23_5 1cm 91% 5mph 6mph 1021mB
12:00 0m -22°C -22_5 0cm 69% 5mph 6mph 1022mB
15:00 0m -23°C -23_6 0cm 28% 6mph 7mph 1022mB
18:00 1125m -14°C -14_8 0cm 15% 8mph 21mph 1014mB
21:00 1628m -14°C -14_5 0cm 7% 5mph 11mph 1008mB
0:00 1419m -14°C -14_1 1cm 49% 1mph 2mph 1010mB
3:00 573m -18°C -18_2 1cm 96% 2mph 3mph 1016mB
6:00 259m -20°C -20_4 1cm 88% 4mph 5mph 1017mB
9:00 0m -22°C -22_2 0cm 73% 2mph 3mph 1017mB
12:00 6m -20°C -20_2 0cm 68% 2mph 3mph 1017mB
15:00 533m -18°C -18_3 0cm 70% 3mph 4mph 1017mB
18:00 1583m -11°C -11_7 0cm 71% 7mph 10mph 1010mB
21:00 1701m -11°C -11_8 1cm 89% 8mph 12mph 1006mB
0:00 1449m -12°C -12_5 2cm 94% 5mph 9mph 1008mB
3:00 1069m -15°C -15_4 1cm 100% 4mph 7mph 1013mB
6:00 730m -17°C -17_4 2cm 100% 4mph 5mph 1014mB
9:00 743m -18°C -18_5 1cm 99% 5mph 7mph 1015mB
12:00 641m -17°C -17_5 1cm 98% 5mph 6mph 1016mB
15:00 892m -16°C -16_4 1cm 100% 4mph 7mph 1019mB
18:00 1428m -12°C -12_2 2cm 100% 2mph 4mph 1017mB
21:00 1660m -12°C -12_6 1cm 99% 6mph 10mph 1016mB
0:00 1419m -12°C -12_7 3cm 99% 7mph 14mph 1020mB
3:00 362m -19°C -19_5 1cm 76% 5mph 6mph 1027mB
6:00 7m -22°C -22_4 1cm 52% 4mph 5mph 1031mB
9:00 0m -22°C -22_5 0cm 3% 5mph 6mph 1032mB
12:00 0m -22°C -22_5 0cm 4% 5mph 6mph 1033mB
15:00 627m -17°C -17_5 0cm 0% 5mph 6mph 1032mB
18:00 2136m -8°C -8_6 0cm 0% 6mph 8mph 1021mB
21:00 2374m -8°C -8_7 0cm 30% 7mph 12mph 1017mB
0:00 1882m -9°C -9_5 0cm 30% 5mph 7mph 1018mB
3:00 518m -18°C -18_4 0cm 1% 4mph 5mph 1025mB
6:00 352m -19°C -19_4 0cm 0% 4mph 5mph 1027mB
9:00 360m -19°C -19_5 0cm 0% 5mph 6mph 1028mB
12:00 429m -18°C -18_5 0cm 0% 5mph 6mph 1028mB
15:00 1232m -13°C -13_4 0cm 0% 4mph 4mph 1025mB
18:00 2462m -5°C -5_6 0cm 10% 6mph 18mph 1016mB
21:00 2386m -4°C -4_6 0cm 0% 6mph 17mph 1011mB
0:00 2059m -4°C -4_2 0cm 8% 2mph 3mph 1011mB
3:00 1303m -9°C -9_3 0cm 52% 3mph 4mph 1016mB
6:00 1056m -11°C -11_3 0cm 50% 3mph 4mph 1016mB
9:00 963m -11°C -11_4 0cm 31% 4mph 5mph 1015mB
12:00 931m -11°C -11_4 0cm 24% 4mph 5mph 1013mB
15:00 1484m -8°C -8_4 0cm 3% 4mph 5mph 1011mB
18:00 2471m -1°C -1_8 0cm 21% 8mph 26mph 1005mB
21:00 2540m -2°C -2_12 1cm 75% 12mph 31mph 1002mB
0:00 2137m -4°C -4_4 1cm 84% 4mph 31mph 1003mB
3:00 1733m -6°C -6_5 1cm 94% 5mph 6mph 1007mB
6:00 1691m -7°C -7_7 1cm 95% 7mph 26mph 1012mB
9:00 1358m -9°C -9_5 1cm 98% 5mph 28mph 1018mB
12:00 612m -6°C -6_4 2cm 72% 4mph 11mph 1024mB
15:00 561m -14°C -14_7 0cm 51% 7mph 19mph 1030mB
18:00 939m -11°C -11_11 0cm 58% 11mph 22mph 1028mB
21:00 1255m -11°C -11_12 1cm 82% 12mph 22mph 1025mB
0:00 1148m -11°C -11_8 1cm 74% 8mph 23mph 1026mB
3:00 327m -15°C -15_3 0cm 3% 3mph 3mph 1034mB
6:00 249m -16°C -16_3 0cm 2% 3mph 4mph 1035mB
Afternoon 0mm 0 1890m -7°C -7_11 0cm 21% 11mph 25mph 1024mB
Morning 0mm 0.3125 1002m -12°C -12_2 2cm 93% 2mph 3mph 1031mB
Afternoon 0mm 0 2204m -5°C -5_2 0cm 83% 2mph 5mph 1025mB
Morning 0mm 0.125 1239m -11°C -11_4 1cm 95% 4mph 6mph 1026mB
Afternoon 0mm 0 1936m -6°C -6_8 0cm 78% 8mph 13mph 1023mB
Morning 0mm 0.125 275m -17°C -17_5 1cm 37% 5mph 6mph 1032mB
Afternoon 0mm 0 2650m -2°C -2_8 0cm 7% 8mph 17mph 1010mB
Morning 0mm 1.125 1779m -7°C -7_3 9cm 82% 3mph 4mph 1003mB
Afternoon 0mm 0.0625 2284m -4°C -4_8 1cm 99% 8mph 12mph 999mB
Morning 0mm 0.375 676m -15°C -15_7 3cm 86% 7mph 13mph 1011mB
Afternoon 0mm 0 2115m -5°C -5_9 0cm 66% 9mph 22mph 999mB
Morning 0.015625mm 0.625 1419m -10°C -10_7 5cm 98% 7mph 26mph 1001mB

16 day outlook at a glance

Forecast issued: 2/17/2019 1:47:40 PM

Chat

Your comments and questions. In a resort? Let us know what it's like!


Characters left 250

For terms and conditions see Readers Comments on the Cookie and privacy policy page.